Time,TemperatureF,DewpointF,PressureIn,WindDirection,WindDirectionDegrees,WindSpeedMPH,WindSpeedGustMPH,Humidity,HourlyPrecipIn,Conditions,Clouds,dailyrainin,SoftwareType,DateUTC
2013-01-14 00:01:00,11.9,4.9,30.08,WNW,293,5.1,8.5,73,0.00,,,0.00,WUHU216HW,2013-01-14 06:01:00,
2013-01-14 00:06:00,11.7,5.0,30.08,NW,315,4.7,8.3,74,0.00,,,0.00,WUHU216HW,2013-01-14 06:06:00,
2013-01-14 00:11:00,11.7,5.0,30.09,WNW,293,2.5,9.8,74,0.00,,,0.00,WUHU216HW,2013-01-14 06:11:00,
2013-01-14 00:16:00,11.5,4.8,30.09,WNW,293,6.9,9.8,74,0.00,,,0.00,WUHU216HW,2013-01-14 06:16:00,
2013-01-14 00:21:00,11.5,4.8,30.09,WNW,293,5.4,9.8,74,0.00,,,0.00,WUHU216HW,2013-01-14 06:21:00,
2013-01-14 00:26:00,11.3,4.6,30.10,WSW,248,6.3,10.5,74,0.00,,,0.00,WUHU216HW,2013-01-14 06:26:00,
2013-01-14 00:31:00,11.2,4.4,30.10,West,270,8.9,10.5,74,0.00,,,0.00,WUHU216HW,2013-01-14 06:31:00,
2013-01-14 00:36:00,11.2,4.4,30.10,West,270,5.4,9.4,74,0.00,,,0.00,WUHU216HW,2013-01-14 06:36:00,
2013-01-14 00:41:00,10.8,4.1,30.10,WNW,293,3.4,9.2,74,0.00,,,0.00,WUHU216HW,2013-01-14 06:41:00,
2013-01-14 00:46:00,10.8,4.1,30.11,WNW,293,2.7,7.2,74,0.00,,,0.00,WUHU216HW,2013-01-14 06:46:00,
2013-01-14 00:51:00,10.6,4.1,30.11,WSW,248,5.8,8.5,75,0.00,,,0.00,WUHU216HW,2013-01-14 06:51:00,
2013-01-14 00:56:00,10.6,4.1,30.11,West,270,4.7,8.5,75,0.00,,,0.00,WUHU216HW,2013-01-14 06:56:00,
2013-01-14 01:01:00,10.4,4.0,30.12,West,270,6.5,6.5,75,0.00,,,0.00,WUHU216HW,2013-01-14 07:01:00,
2013-01-14 01:06:00,10.4,4.2,30.12,WSW,248,6.9,8.5,76,0.00,,,0.00,WUHU216HW,2013-01-14 07:06:00,
2013-01-14 01:11:00,10.4,4.2,30.12,NNW,338,7.8,8.5,76,0.00,,,0.00,WUHU216HW,2013-01-14 07:11:00,
2013-01-14 01:16:00,10.4,4.2,30.12,NNW,338,11.4,11.4,76,0.00,,,0.00,WUHU216HW,2013-01-14 07:16:00,
2013-01-14 01:21:00,10.4,4.0,30.12,WNW,293,6.3,11.4,75,0.00,,,0.00,WUHU216HW,2013-01-14 07:21:00,
2013-01-14 01:26:00,10.4,4.0,30.12,West,270,11.2,11.2,75,0.00,,,0.00,WUHU216HW,2013-01-14 07:26:00,
2013-01-14 01:31:00,10.4,3.7,30.13,WNW,293,6.9,11.2,74,0.00,,,0.00,WUHU216HW,2013-01-14 07:31:00,
2013-01-14 01:36:00,10.4,3.7,30.13,WNW,293,4.7,10.7,74,0.00,,,0.00,WUHU216HW,2013-01-14 07:36:00,
2013-01-14 01:41:00,10.3,3.8,30.13,WNW,293,5.4,10.7,75,0.00,,,0.00,WUHU216HW,2013-01-14 07:41:00,
2013-01-14 01:46:00,10.3,3.8,30.14,WNW,293,4.7,10.3,75,0.00,,,0.00,WUHU216HW,2013-01-14 07:46:00,
2013-01-14 01:51:00,10.3,3.8,30.14,WSW,248,4.0,8.7,75,0.00,,,0.00,WUHU216HW,2013-01-14 07:51:00,
2013-01-14 01:56:00,10.1,3.6,30.14,West,270,1.3,9.2,75,0.00,,,0.00,WUHU216HW,2013-01-14 07:56:00,
2013-01-14 02:01:00,9.9,3.5,30.14,NW,315,5.6,9.2,75,0.00,,,0.00,WUHU216HW,2013-01-14 08:01:00,
2013-01-14 02:06:00,9.7,3.6,30.15,West,270,5.4,8.5,76,0.00,,,0.00,WUHU216HW,2013-01-14 08:06:00,
2013-01-14 02:11:00,9.7,3.6,30.15,WNW,293,6.9,10.1,76,0.00,,,0.00,WUHU216HW,2013-01-14 08:11:00,
2013-01-14 02:16:00,9.7,3.6,30.14,NW,315,4.7,10.1,76,0.00,,,0.00,WUHU216HW,2013-01-14 08:16:00,
2013-01-14 02:21:00,9.7,3.9,30.15,West,270,6.0,8.3,77,0.00,,,0.00,WUHU216HW,2013-01-14 08:21:00,
2013-01-14 02:26:00,9.7,3.9,30.15,NW,315,4.0,10.1,77,0.00,,,0.00,WUHU216HW,2013-01-14 08:26:00,
2013-01-14 02:31:00,9.7,3.9,30.15,West,270,6.3,10.1,77,0.00,,,0.00,WUHU216HW,2013-01-14 08:31:00,
2013-01-14 02:36:00,9.5,3.7,30.15,WSW,248,7.4,9.6,77,0.00,,,0.00,WUHU216HW,2013-01-14 08:36:00,
2013-01-14 02:41:00,9.4,3.6,30.16,West,270,4.5,9.6,77,0.00,,,0.00,WUHU216HW,2013-01-14 08:41:00,
2013-01-14 02:46:00,9.2,3.4,30.17,WSW,248,5.1,8.1,77,0.00,,,0.00,WUHU216HW,2013-01-14 08:46:00,
2013-01-14 02:51:00,9.0,3.2,30.17,WSW,248,6.9,7.6,77,0.00,,,0.00,WUHU216HW,2013-01-14 08:51:00,
2013-01-14 02:56:00,9.0,3.5,30.17,WNW,293,3.1,8.5,78,0.00,,,0.00,WUHU216HW,2013-01-14 08:56:00,
2013-01-14 03:01:00,9.0,3.5,30.17,WNW,293,5.8,8.5,78,0.00,,,0.00,WUHU216HW,2013-01-14 09:01:00,
2013-01-14 03:06:00,9.0,3.5,30.17,WNW,293,7.8,7.8,78,0.00,,,0.00,WUHU216HW,2013-01-14 09:06:00,
2013-01-14 03:11:00,9.0,3.5,30.17,WNW,293,6.3,8.9,78,0.00,,,0.00,WUHU216HW,2013-01-14 09:11:00,
2013-01-14 03:16:00,9.0,3.5,30.17,WNW,293,2.5,8.9,78,0.00,,,0.00,WUHU216HW,2013-01-14 09:16:00,
2013-01-14 03:21:00,8.8,3.3,30.17,WNW,293,3.6,6.3,78,0.00,,,0.00,WUHU216HW,2013-01-14 09:21:00,
2013-01-14 03:26:00,8.8,3.7,30.18,WNW,293,3.6,6.3,79,0.00,,,0.00,WUHU216HW,2013-01-14 09:26:00,
2013-01-14 03:31:00,8.6,3.3,30.17,WNW,293,4.3,5.6,78,0.00,,,0.00,WUHU216HW,2013-01-14 09:31:00,
2013-01-14 03:36:00,8.5,3.3,30.18,WSW,248,4.5,6.0,79,0.00,,,0.00,WUHU216HW,2013-01-14 09:36:00,
2013-01-14 03:41:00,8.5,3.1,30.18,WNW,293,2.5,6.0,78,0.00,,,0.00,WUHU216HW,2013-01-14 09:41:00,
2013-01-14 03:46:00,8.5,3.1,30.18,West,270,4.5,5.8,78,0.00,,,0.00,WUHU216HW,2013-01-14 09:46:00,
2013-01-14 03:51:00,8.5,3.1,30.18,NW,315,4.9,8.5,78,0.00,,,0.00,WUHU216HW,2013-01-14 09:51:00,
2013-01-14 03:56:00,8.5,3.1,30.18,NNW,338,4.9,9.2,78,0.00,,,0.00,WUHU216HW,2013-01-14 09:56:00,
2013-01-14 04:01:00,8.3,3.2,30.18,WSW,248,3.4,9.2,79,0.00,,,0.00,WUHU216HW,2013-01-14 10:01:00,
2013-01-14 04:06:00,8.3,2.9,30.18,WSW,248,5.6,6.0,78,0.00,,,0.00,WUHU216HW,2013-01-14 10:06:00,
2013-01-14 04:11:00,8.3,3.2,30.18,WNW,293,3.1,7.6,79,0.00,,,0.00,WUHU216HW,2013-01-14 10:11:00,
2013-01-14 04:16:00,8.3,2.9,30.19,WNW,293,5.6,7.6,78,0.00,,,0.00,WUHU216HW,2013-01-14 10:16:00,
2013-01-14 04:21:00,8.3,2.9,30.19,WNW,293,5.4,6.9,78,0.00,,,0.00,WUHU216HW,2013-01-14 10:21:00,
2013-01-14 04:26:00,8.1,2.7,30.19,WNW,293,5.1,5.6,78,0.00,,,0.00,WUHU216HW,2013-01-14 10:26:00,
2013-01-14 04:31:00,8.1,3.0,30.19,West,270,3.6,6.3,79,0.00,,,0.00,WUHU216HW,2013-01-14 10:31:00,
2013-01-14 04:36:00,8.1,2.7,30.19,West,270,3.6,6.3,78,0.00,,,0.00,WUHU216HW,2013-01-14 10:36:00,
2013-01-14 04:41:00,7.9,2.8,30.20,WSW,248,4.0,5.6,79,0.00,,,0.00,WUHU216HW,2013-01-14 10:41:00,
2013-01-14 04:46:00,7.7,2.4,30.20,WSW,248,3.4,5.6,78,0.00,,,0.00,WUHU216HW,2013-01-14 10:46:00,
2013-01-14 04:51:00,7.7,2.4,30.20,WSW,248,4.7,5.8,78,0.00,,,0.00,WUHU216HW,2013-01-14 10:51:00,
2013-01-14 04:56:00,7.6,2.2,30.20,WSW,248,3.6,5.8,78,0.00,,,0.00,WUHU216HW,2013-01-14 10:56:00,
2013-01-14 05:01:00,7.6,2.2,30.21,WSW,248,3.6,4.0,78,0.00,,,0.00,WUHU216HW,2013-01-14 11:01:00,
2013-01-14 05:06:00,7.4,2.0,30.21,WSW,248,2.5,4.7,78,0.00,,,0.00,WUHU216HW,2013-01-14 11:06:00,
2013-01-14 05:11:00,7.4,2.0,30.21,WSW,248,4.5,5.4,78,0.00,,,0.00,WUHU216HW,2013-01-14 11:11:00,
2013-01-14 05:16:00,7.4,2.0,30.22,SSW,203,3.1,5.6,78,0.00,,,0.00,WUHU216HW,2013-01-14 11:16:00,
2013-01-14 05:21:00,7.4,2.0,30.22,WSW,248,4.0,5.6,78,0.00,,,0.00,WUHU216HW,2013-01-14 11:21:00,
2013-01-14 05:26:00,7.4,2.5,30.22,West,270,1.8,4.7,80,0.00,,,0.00,WUHU216HW,2013-01-14 11:26:00,
2013-01-14 05:31:00,7.4,2.5,30.22,WSW,248,5.8,7.2,80,0.00,,,0.00,WUHU216HW,2013-01-14 11:31:00,
2013-01-14 05:36:00,7.6,2.7,30.23,WSW,248,6.3,7.2,80,0.00,,,0.00,WUHU216HW,2013-01-14 11:36:00,
2013-01-14 05:41:00,7.6,2.4,30.24,WSW,248,5.8,7.2,79,0.00,,,0.00,WUHU216HW,2013-01-14 11:41:00,
2013-01-14 05:46:00,7.6,2.4,30.24,WSW,248,3.6,6.9,79,0.00,,,0.00,WUHU216HW,2013-01-14 11:46:00,
2013-01-14 05:51:00,7.4,2.3,30.24,WSW,248,3.4,6.0,79,0.00,,,0.00,WUHU216HW,2013-01-14 11:51:00,
2013-01-14 05:56:00,7.2,2.1,30.25,WSW,248,3.8,4.7,79,0.00,,,0.00,WUHU216HW,2013-01-14 11:56:00,
2013-01-14 06:01:00,7.2,2.1,30.25,SSW,203,2.2,4.7,79,0.00,,,0.00,WUHU216HW,2013-01-14 12:01:00,
2013-01-14 06:06:00,7.2,2.1,30.26,WSW,248,3.4,5.4,79,0.00,,,0.00,WUHU216HW,2013-01-14 12:06:00,
2013-01-14 06:11:00,7.2,2.1,30.26,WSW,248,3.6,5.4,79,0.00,,,0.00,WUHU216HW,2013-01-14 12:11:00,
2013-01-14 06:16:00,7.2,2.1,30.26,SW,225,4.0,4.9,79,0.00,,,0.00,WUHU216HW,2013-01-14 12:16:00,
2013-01-14 06:21:00,7.2,2.3,30.27,WSW,248,4.5,7.8,80,0.00,,,0.00,WUHU216HW,2013-01-14 12:21:00,
2013-01-14 06:26:00,7.4,2.5,30.27,SW,225,4.7,7.8,80,0.00,,,0.00,WUHU216HW,2013-01-14 12:26:00,
2013-01-14 06:31:00,7.4,2.5,30.27,WSW,248,5.1,7.2,80,0.00,,,0.00,WUHU216HW,2013-01-14 12:31:00,
2013-01-14 06:36:00,7.4,2.5,30.27,SW,225,6.7,7.6,80,0.00,,,0.00,WUHU216HW,2013-01-14 12:36:00,
2013-01-14 06:41:00,7.6,2.7,30.27,WSW,248,5.6,7.8,80,0.00,,,0.00,WUHU216HW,2013-01-14 12:41:00,
2013-01-14 06:46:00,7.6,3.0,30.28,West,270,5.4,7.8,81,0.00,,,0.00,WUHU216HW,2013-01-14 12:46:00,
2013-01-14 06:51:00,7.7,3.2,30.27,West,270,6.9,9.2,81,0.00,,,0.00,WUHU216HW,2013-01-14 12:51:00,
2013-01-14 06:56:00,7.7,3.2,30.28,West,270,6.0,10.3,81,0.00,,,0.00,WUHU216HW,2013-01-14 12:56:00,
2013-01-14 07:01:00,7.7,2.9,30.28,WSW,248,6.3,10.3,80,0.00,,,0.00,WUHU216HW,2013-01-14 13:01:00,
2013-01-14 07:06:00,7.7,2.9,30.28,West,270,6.0,8.7,80,0.00,,,0.00,WUHU216HW,2013-01-14 13:06:00,
2013-01-14 07:11:00,7.7,3.2,30.28,West,270,4.9,7.2,81,0.00,,,0.00,WUHU216HW,2013-01-14 13:11:00,
2013-01-14 07:16:00,7.6,2.7,30.28,SW,225,6.3,7.6,80,0.00,,,0.00,WUHU216HW,2013-01-14 13:16:00,
2013-01-14 07:21:00,7.7,3.2,30.28,WNW,293,3.6,7.6,81,0.00,,,0.00,WUHU216HW,2013-01-14 13:21:00,
2013-01-14 07:26:00,7.7,2.9,30.28,WSW,248,6.3,7.6,80,0.00,,,0.00,WUHU216HW,2013-01-14 13:26:00,
2013-01-14 07:31:00,7.7,2.9,30.28,WSW,248,6.7,7.6,80,0.00,,,0.00,WUHU216HW,2013-01-14 13:31:00,
2013-01-14 07:36:00,7.6,2.7,30.28,West,270,4.0,7.6,80,0.00,,,0.00,WUHU216HW,2013-01-14 13:36:00,
2013-01-14 07:41:00,7.7,3.2,30.29,WSW,248,4.9,7.6,81,0.00,,,0.00,WUHU216HW,2013-01-14 13:41:00,
2013-01-14 07:46:00,7.9,3.3,30.29,WSW,248,7.6,7.6,81,0.00,,,0.00,WUHU216HW,2013-01-14 13:46:00,
2013-01-14 07:51:00,7.9,3.1,30.29,WSW,248,6.3,8.3,80,0.00,,,0.00,WUHU216HW,2013-01-14 13:51:00,
2013-01-14 07:55:00,8.1,3.2,30.29,WSW,248,5.1,8.3,80,0.00,,,0.00,WUHU216HW,2013-01-14 13:55:00,
2013-01-14 08:00:00,8.3,3.4,30.30,WSW,248,6.5,7.6,80,0.00,,,0.00,WUHU216HW,2013-01-14 14:00:00,
2013-01-14 08:05:00,8.3,3.4,30.30,WSW,248,5.6,7.6,80,0.00,,,0.00,WUHU216HW,2013-01-14 14:05:00,
2013-01-14 08:10:00,8.5,3.6,30.30,SW,225,6.3,8.7,80,0.00,,,0.00,WUHU216HW,2013-01-14 14:10:00,
2013-01-14 08:15:00,8.8,4.0,30.30,WSW,248,7.2,10.1,80,0.00,,,0.00,WUHU216HW,2013-01-14 14:15:00,
2013-01-14 08:20:00,9.0,4.2,30.31,SW,225,4.7,10.1,80,0.00,,,0.00,WUHU216HW,2013-01-14 14:20:00,
2013-01-14 08:25:00,9.2,4.2,30.31,WSW,248,6.9,8.3,80,0.00,,,0.00,WUHU216HW,2013-01-14 14:25:00,
2013-01-14 08:30:00,9.5,4.6,30.31,West,270,2.7,8.3,80,0.00,,,0.00,WUHU216HW,2013-01-14 14:30:00,
2013-01-14 08:35:00,9.7,4.5,30.31,WSW,248,6.9,7.6,79,0.00,,,0.00,WUHU216HW,2013-01-14 14:35:00,
2013-01-14 08:40:00,9.9,4.3,30.30,WSW,248,9.2,9.2,78,0.00,,,0.00,WUHU216HW,2013-01-14 14:40:00,
2013-01-14 08:45:00,9.9,4.3,30.30,West,270,2.5,9.6,78,0.00,,,0.00,WUHU216HW,2013-01-14 14:45:00,
2013-01-14 08:50:00,10.3,4.7,30.30,SW,225,6.3,9.6,78,0.00,,,0.00,WUHU216HW,2013-01-14 14:50:00,
2013-01-14 08:55:00,10.4,5.1,30.30,WSW,248,4.9,7.8,79,0.00,,,0.00,WUHU216HW,2013-01-14 14:55:00,
2013-01-14 09:00:00,10.8,5.2,30.30,SW,225,6.0,7.8,78,0.00,,,0.00,WUHU216HW,2013-01-14 15:00:00,
2013-01-14 09:05:00,10.8,5.2,30.30,WSW,248,6.3,8.9,78,0.00,,,0.00,WUHU216HW,2013-01-14 15:05:00,
2013-01-14 09:10:00,11.0,5.0,30.30,West,270,3.6,8.9,77,0.00,,,0.00,WUHU216HW,2013-01-14 15:10:00,
2013-01-14 09:15:00,11.2,5.6,30.30,WSW,248,4.9,6.9,78,0.00,,,0.00,WUHU216HW,2013-01-14 15:15:00,
2013-01-14 09:20:00,11.5,5.6,30.30,WSW,248,6.0,7.4,77,0.00,,,0.00,WUHU216HW,2013-01-14 15:20:00,
2013-01-14 09:25:00,11.7,5.8,30.30,WSW,248,5.1,7.4,77,0.00,,,0.00,WUHU216HW,2013-01-14 15:25:00,
2013-01-14 09:30:00,12.1,5.9,30.30,WSW,248,5.4,8.5,76,0.00,,,0.00,WUHU216HW,2013-01-14 15:30:00,
2013-01-14 09:35:00,12.1,5.9,30.30,WSW,248,7.4,8.5,76,0.00,,,0.00,WUHU216HW,2013-01-14 15:35:00,
2013-01-14 09:40:00,12.2,5.8,30.30,SW,225,6.9,10.3,75,0.00,,,0.00,WUHU216HW,2013-01-14 15:40:00,
2013-01-14 09:45:00,12.6,6.1,30.30,WSW,248,6.9,10.3,75,0.00,,,0.00,WUHU216HW,2013-01-14 15:45:00,
2013-01-14 09:50:00,13.0,6.8,30.30,WSW,248,6.7,10.1,76,0.00,,,0.00,WUHU216HW,2013-01-14 15:50:00,
2013-01-14 09:55:00,13.1,6.9,30.30,SW,225,5.6,8.9,76,0.00,,,0.00,WUHU216HW,2013-01-14 15:55:00,
2013-01-14 10:00:00,13.5,7.0,30.30,WSW,248,4.5,8.9,75,0.00,,,0.00,WUHU216HW,2013-01-14 16:00:00,
2013-01-14 10:05:00,14.0,7.6,30.30,NNE,23,4.9,8.7,75,0.00,,,0.00,WUHU216HW,2013-01-14 16:05:00,
2013-01-14 10:10:00,14.2,7.5,30.29,West,270,6.3,8.7,74,0.00,,,0.00,WUHU216HW,2013-01-14 16:10:00,
2013-01-14 10:15:00,14.2,6.8,30.29,WNW,293,4.0,7.6,72,0.00,,,0.00,WUHU216HW,2013-01-14 16:15:00,
2013-01-14 10:20:00,14.8,7.7,30.29,SW,225,4.7,7.6,73,0.00,,,0.00,WUHU216HW,2013-01-14 16:20:00,
2013-01-14 10:25:00,14.9,7.6,30.29,WSW,248,6.0,7.6,72,0.00,,,0.00,WUHU216HW,2013-01-14 16:25:00,
2013-01-14 10:30:00,15.3,6.9,30.29,WNW,293,6.5,6.5,69,0.00,,,0.00,WUHU216HW,2013-01-14 16:30:00,
2013-01-14 10:35:00,15.5,7.8,30.28,WNW,293,4.5,6.5,71,0.00,,,0.00,WUHU216HW,2013-01-14 16:35:00,
2013-01-14 10:40:00,15.7,7.6,30.28,WSW,248,3.4,7.6,70,0.00,,,0.00,WUHU216HW,2013-01-14 16:40:00,
2013-01-14 10:45:00,15.8,7.4,30.28,NW,315,5.4,8.1,69,0.00,,,0.00,WUHU216HW,2013-01-14 16:45:00,
2013-01-14 10:50:00,15.8,7.7,30.28,WSW,248,6.3,8.1,70,0.00,,,0.00,WUHU216HW,2013-01-14 16:50:00,
2013-01-14 10:55:00,16.0,7.6,30.28,NNE,23,4.0,8.1,69,0.00,,,0.00,WUHU216HW,2013-01-14 16:55:00,
2013-01-14 11:00:00,16.4,7.9,30.28,West,270,8.7,8.7,69,0.00,,,0.00,WUHU216HW,2013-01-14 17:00:00,
2013-01-14 11:05:00,16.7,7.9,30.28,WSW,248,7.6,10.5,68,0.00,,,0.00,WUHU216HW,2013-01-14 17:05:00,
2013-01-14 11:10:00,16.9,8.1,30.28,NW,315,3.6,10.5,68,0.00,,,0.00,WUHU216HW,2013-01-14 17:10:00,
2013-01-14 11:15:00,17.1,8.0,30.28,North,0,6.9,9.4,67,0.00,,,0.00,WUHU216HW,2013-01-14 17:15:00,
2013-01-14 11:20:00,17.5,8.0,30.28,WSW,248,10.5,10.5,66,0.00,,,0.00,WUHU216HW,2013-01-14 17:20:00,
2013-01-14 11:25:00,17.6,8.2,30.28,SW,225,9.2,10.7,66,0.00,,,0.00,WUHU216HW,2013-01-14 17:25:00,
2013-01-14 11:30:00,17.8,8.0,30.28,West,270,7.4,10.7,65,0.00,,,0.00,WUHU216HW,2013-01-14 17:30:00,
2013-01-14 11:35:00,17.8,8.0,30.28,WNW,293,7.8,10.7,65,0.00,,,0.00,WUHU216HW,2013-01-14 17:35:00,
2013-01-14 11:40:00,18.0,8.5,30.28,WSW,248,7.2,10.7,66,0.00,,,0.00,WUHU216HW,2013-01-14 17:40:00,
2013-01-14 11:45:00,18.4,8.1,30.27,WSW,248,7.4,10.5,64,0.00,,,0.00,WUHU216HW,2013-01-14 17:45:00,
2013-01-14 11:50:00,18.7,8.8,30.27,SW,225,6.9,9.2,65,0.00,,,0.00,WUHU216HW,2013-01-14 17:50:00,
2013-01-14 11:55:00,19.1,9.1,30.27,WSW,248,6.3,12.8,65,0.00,,,0.00,WUHU216HW,2013-01-14 17:55:00,
2013-01-14 12:00:00,19.4,9.5,30.27,West,270,4.3,12.8,65,0.00,,,0.00,WUHU216HW,2013-01-14 18:00:00,
2013-01-14 12:05:00,19.8,9.8,30.27,WSW,248,8.3,11.4,65,0.00,,,0.00,WUHU216HW,2013-01-14 18:05:00,
2013-01-14 12:10:00,20.0,8.7,30.27,NW,315,6.7,10.5,61,0.00,,,0.00,WUHU216HW,2013-01-14 18:10:00,
2013-01-14 12:15:00,20.2,9.5,30.27,WSW,248,9.4,11.6,63,0.00,,,0.00,WUHU216HW,2013-01-14 18:15:00,
2013-01-14 12:20:00,20.5,9.2,30.27,WSW,248,7.8,11.6,61,0.00,,,0.00,WUHU216HW,2013-01-14 18:20:00,
2013-01-14 12:25:00,20.5,9.6,30.27,WSW,248,10.1,12.8,62,0.00,,,0.00,WUHU216HW,2013-01-14 18:25:00,
2013-01-14 12:30:00,20.9,9.2,30.27,WSW,248,10.1,12.8,60,0.00,,,0.00,WUHU216HW,2013-01-14 18:30:00,
2013-01-14 12:35:00,21.2,9.5,30.27,WSW,248,10.3,13.9,60,0.00,,,0.00,WUHU216HW,2013-01-14 18:35:00,
2013-01-14 12:40:00,21.1,8.9,30.27,WSW,248,9.8,14.8,59,0.00,,,0.00,WUHU216HW,2013-01-14 18:40:00,
2013-01-14 12:45:00,21.2,9.1,30.27,WNW,293,4.5,14.8,59,0.00,,,0.00,WUHU216HW,2013-01-14 18:45:00,
2013-01-14 12:50:00,21.2,9.1,30.27,WSW,248,10.5,11.6,59,0.00,,,0.00,WUHU216HW,2013-01-14 18:50:00,
2013-01-14 12:55:00,21.6,8.7,30.26,WSW,248,9.8,14.3,57,0.00,,,0.00,WUHU216HW,2013-01-14 18:55:00,
2013-01-14 13:00:00,21.6,9.5,30.26,WSW,248,10.3,14.3,59,0.00,,,0.00,WUHU216HW,2013-01-14 19:00:00,
2013-01-14 13:05:00,21.8,9.6,30.26,WSW,248,12.5,15.2,59,0.00,,,0.00,WUHU216HW,2013-01-14 19:05:00,
2013-01-14 13:10:00,22.0,9.8,30.25,WSW,248,13.4,15.2,59,0.00,,,0.00,WUHU216HW,2013-01-14 19:10:00,
2013-01-14 13:15:00,22.1,9.9,30.26,WSW,248,8.5,14.1,59,0.00,,,0.00,WUHU216HW,2013-01-14 19:15:00,
2013-01-14 13:20:00,22.1,9.5,30.26,WSW,248,6.9,14.1,58,0.00,,,0.00,WUHU216HW,2013-01-14 19:20:00,
2013-01-14 13:25:00,22.3,8.5,30.26,WNW,293,8.9,11.2,55,0.00,,,0.00,WUHU216HW,2013-01-14 19:25:00,
2013-01-14 13:30:00,22.1,9.1,30.26,WSW,248,12.5,12.5,57,0.00,,,0.00,WUHU216HW,2013-01-14 19:30:00,
2013-01-14 13:35:00,22.3,8.9,30.26,WSW,248,8.7,12.8,56,0.00,,,0.00,WUHU216HW,2013-01-14 19:35:00,
2013-01-14 13:40:00,22.5,9.1,30.25,WSW,248,10.5,13.2,56,0.00,,,0.00,WUHU216HW,2013-01-14 19:40:00,
2013-01-14 13:45:00,22.7,8.8,30.25,WSW,248,9.4,13.2,55,0.00,,,0.00,WUHU216HW,2013-01-14 19:45:00,
2013-01-14 13:50:00,22.9,9.0,30.25,West,270,13.4,14.3,55,0.00,,,0.00,WUHU216HW,2013-01-14 19:50:00,
2013-01-14 13:55:00,22.7,8.8,30.25,WSW,248,6.5,14.3,55,0.00,,,0.00,WUHU216HW,2013-01-14 19:55:00,
2013-01-14 14:00:00,22.7,8.8,30.25,WNW,293,11.6,13.4,55,0.00,,,0.00,WUHU216HW,2013-01-14 20:00:00,
2013-01-14 14:05:00,22.9,9.0,30.25,WSW,248,5.4,14.3,55,0.00,,,0.00,WUHU216HW,2013-01-14 20:05:00,
2013-01-14 14:10:00,23.0,9.5,30.25,West,270,7.4,14.3,56,0.00,,,0.00,WUHU216HW,2013-01-14 20:10:00,
2013-01-14 14:15:00,23.2,10.2,30.25,WSW,248,9.2,13.4,57,0.00,,,0.00,WUHU216HW,2013-01-14 20:15:00,
2013-01-14 14:20:00,23.4,10.7,30.26,West,270,9.2,13.4,58,0.00,,,0.00,WUHU216HW,2013-01-14 20:20:00,
2013-01-14 14:25:00,23.4,10.4,30.27,WSW,248,11.4,15.7,57,0.00,,,0.00,WUHU216HW,2013-01-14 20:25:00,
2013-01-14 14:30:00,23.4,10.4,30.27,WSW,248,9.8,15.7,57,0.00,,,0.00,WUHU216HW,2013-01-14 20:30:00,
2013-01-14 14:35:00,23.6,10.5,30.27,WSW,248,7.6,11.6,57,0.00,,,0.00,WUHU216HW,2013-01-14 20:35:00,
2013-01-14 14:40:00,23.6,10.1,30.27,WSW,248,5.8,11.6,56,0.00,,,0.00,WUHU216HW,2013-01-14 20:40:00,
2013-01-14 14:45:00,23.6,10.5,30.27,WSW,248,1.6,11.4,57,0.00,,,0.00,WUHU216HW,2013-01-14 20:45:00,
2013-01-14 14:50:00,23.9,10.4,30.27,West,270,4.7,11.4,56,0.00,,,0.00,WUHU216HW,2013-01-14 20:50:00,
2013-01-14 14:55:00,23.9,10.9,30.27,WSW,248,6.0,9.8,57,0.00,,,0.00,WUHU216HW,2013-01-14 20:55:00,
2013-01-14 15:00:00,23.9,11.3,30.27,West,270,4.5,9.8,58,0.00,,,0.00,WUHU216HW,2013-01-14 21:00:00,
2013-01-14 15:05:00,24.1,10.6,30.27,WSW,248,4.0,7.6,56,0.00,,,0.00,WUHU216HW,2013-01-14 21:05:00,
2013-01-14 15:10:00,24.3,10.8,30.27,West,270,6.9,7.6,56,0.00,,,0.00,WUHU216HW,2013-01-14 21:10:00,
2013-01-14 15:15:00,24.1,11.0,30.26,WSW,248,6.7,9.2,57,0.00,,,0.00,WUHU216HW,2013-01-14 21:15:00,
2013-01-14 15:20:00,24.1,10.6,30.26,NW,315,4.5,9.2,56,0.00,,,0.00,WUHU216HW,2013-01-14 21:20:00,
2013-01-14 15:25:00,24.1,10.6,30.26,West,270,5.4,6.7,56,0.00,,,0.00,WUHU216HW,2013-01-14 21:25:00,
2013-01-14 15:30:00,24.1,11.4,30.26,SSW,203,3.1,6.3,58,0.00,,,0.00,WUHU216HW,2013-01-14 21:30:00,
2013-01-14 15:35:00,24.1,11.0,30.26,WSW,248,1.8,7.6,57,0.00,,,0.00,WUHU216HW,2013-01-14 21:35:00,
2013-01-14 15:40:00,24.1,11.4,30.27,SSW,203,4.3,7.6,58,0.00,,,0.00,WUHU216HW,2013-01-14 21:40:00,
2013-01-14 15:45:00,23.9,11.3,30.27,WSW,248,4.7,6.7,58,0.00,,,0.00,WUHU216HW,2013-01-14 21:45:00,
2013-01-14 15:50:00,23.9,10.9,30.26,WSW,248,4.0,6.7,57,0.00,,,0.00,WUHU216HW,2013-01-14 21:50:00,
2013-01-14 15:55:00,23.6,10.9,30.26,West,270,2.5,6.7,58,0.00,,,0.00,WUHU216HW,2013-01-14 21:55:00,
2013-01-14 16:00:00,23.8,11.1,30.27,WSW,248,3.4,5.4,58,0.00,,,0.00,WUHU216HW,2013-01-14 22:00:00,
2013-01-14 16:05:00,23.6,11.4,30.27,WNW,293,4.0,6.9,59,0.00,,,0.00,WUHU216HW,2013-01-14 22:05:00,
2013-01-14 16:10:00,23.4,10.7,30.27,WNW,293,3.4,6.9,58,0.00,,,0.00,WUHU216HW,2013-01-14 22:10:00,
2013-01-14 16:15:00,23.4,11.2,30.27,WSW,248,2.9,4.7,59,0.00,,,0.00,WUHU216HW,2013-01-14 22:15:00,
2013-01-14 16:20:00,23.2,11.0,30.27,WSW,248,2.9,4.0,59,0.00,,,0.00,WUHU216HW,2013-01-14 22:20:00,
2013-01-14 16:25:00,23.0,10.8,30.27,WSW,248,4.0,4.5,59,0.00,,,0.00,WUHU216HW,2013-01-14 22:25:00,
2013-01-14 16:30:00,23.0,10.8,30.27,West,270,3.8,5.4,59,0.00,,,0.00,WUHU216HW,2013-01-14 22:30:00,
2013-01-14 16:35:00,22.7,10.5,30.26,West,270,4.0,5.4,59,0.00,,,0.00,WUHU216HW,2013-01-14 22:35:00,
2013-01-14 16:40:00,22.5,10.7,30.27,West,270,2.5,5.1,60,0.00,,,0.00,WUHU216HW,2013-01-14 22:40:00,
2013-01-14 16:45:00,22.1,10.4,30.27,WNW,293,3.6,5.1,60,0.00,,,0.00,WUHU216HW,2013-01-14 22:45:00,
2013-01-14 16:50:00,22.0,10.5,30.27,NW,315,2.7,4.3,61,0.00,,,0.00,WUHU216HW,2013-01-14 22:50:00,
2013-01-14 16:55:00,21.8,10.4,30.27,NNW,338,1.8,3.4,61,0.00,,,0.00,WUHU216HW,2013-01-14 22:55:00,
2013-01-14 17:00:00,21.4,10.4,30.26,WNW,293,2.2,3.4,62,0.00,,,0.00,WUHU216HW,2013-01-14 23:00:00,
2013-01-14 17:05:00,21.2,10.3,30.27,WNW,293,1.6,3.1,62,0.00,,,0.00,WUHU216HW,2013-01-14 23:05:00,
2013-01-14 17:10:00,21.2,10.5,30.27,West,270,2.2,3.4,63,0.00,,,0.00,WUHU216HW,2013-01-14 23:10:00,
2013-01-14 17:15:00,20.9,10.2,30.27,West,270,2.5,3.4,63,0.00,,,0.00,WUHU216HW,2013-01-14 23:15:00,
2013-01-14 17:20:00,20.5,9.8,30.26,West,270,1.6,3.4,63,0.00,,,0.00,WUHU216HW,2013-01-14 23:20:00,
2013-01-14 17:24:00,20.3,10.0,30.26,WSW,248,1.1,2.7,64,0.00,,,0.00,WUHU216HW,2013-01-14 23:24:00,
2013-01-14 17:29:00,20.0,10.0,30.26,WNW,293,1.3,2.0,65,0.00,,,0.00,WUHU216HW,2013-01-14 23:29:00,
2013-01-14 17:34:00,19.8,9.8,30.26,West,270,0.7,1.8,65,0.00,,,0.00,WUHU216HW,2013-01-14 23:34:00,
2013-01-14 17:39:00,19.4,9.5,30.27,WSW,248,1.1,1.8,65,0.00,,,0.00,WUHU216HW,2013-01-14 23:39:00,
2013-01-14 17:44:00,19.1,9.1,30.27,WSW,248,1.1,1.6,65,0.00,,,0.00,WUHU216HW,2013-01-14 23:44:00,
2013-01-14 17:49:00,18.5,8.6,30.27,SW,225,1.1,1.8,65,0.00,,,0.00,WUHU216HW,2013-01-14 23:49:00,
2013-01-14 17:54:00,18.2,8.6,30.27,SW,225,1.8,1.8,66,0.00,,,0.00,WUHU216HW,2013-01-14 23:54:00,
2013-01-14 17:59:00,17.8,9.0,30.27,SW,225,2.0,2.2,68,0.00,,,0.00,WUHU216HW,2013-01-14 23:59:00,
2013-01-14 18:04:00,17.6,8.8,30.27,WSW,248,2.5,2.5,68,0.00,,,0.00,WUHU216HW,2013-01-15 00:04:00,
2013-01-14 18:09:00,17.5,9.0,30.27,WSW,248,2.2,2.5,69,0.00,,,0.00,WUHU216HW,2013-01-15 00:09:00,
2013-01-14 18:14:00,17.3,8.5,30.27,WSW,248,1.6,2.5,68,0.00,,,0.00,WUHU216HW,2013-01-15 00:14:00,
2013-01-14 18:19:00,17.3,8.8,30.27,WSW,248,2.5,2.7,69,0.00,,,0.00,WUHU216HW,2013-01-15 00:19:00,
2013-01-14 18:24:00,17.5,9.0,30.27,WSW,248,2.2,2.9,69,0.00,,,0.00,WUHU216HW,2013-01-15 00:24:00,
2013-01-14 18:29:00,17.5,9.0,30.27,WSW,248,3.4,4.0,69,0.00,,,0.00,WUHU216HW,2013-01-15 00:29:00,
2013-01-14 18:34:00,17.5,9.0,30.27,WSW,248,3.8,4.7,69,0.00,,,0.00,WUHU216HW,2013-01-15 00:34:00,
2013-01-14 18:39:00,17.5,9.0,30.27,WSW,248,4.5,4.9,69,0.00,,,0.00,WUHU216HW,2013-01-15 00:39:00,
2013-01-14 18:44:00,17.6,9.5,30.27,WSW,248,3.8,4.9,70,0.00,,,0.00,WUHU216HW,2013-01-15 00:44:00,
2013-01-14 18:49:00,17.6,9.2,30.27,WSW,248,3.1,4.7,69,0.00,,,0.00,WUHU216HW,2013-01-15 00:49:00,
2013-01-14 18:54:00,17.5,9.4,30.27,SW,225,3.8,4.5,70,0.00,,,0.00,WUHU216HW,2013-01-15 00:54:00,
2013-01-14 18:59:00,17.5,9.4,30.27,WSW,248,4.0,6.3,70,0.00,,,0.00,WUHU216HW,2013-01-15 00:59:00,
2013-01-14 19:04:00,17.6,9.8,30.27,WSW,248,6.7,6.7,71,0.00,,,0.00,WUHU216HW,2013-01-15 01:04:00,
2013-01-14 19:09:00,17.6,9.8,30.27,WSW,248,5.4,6.7,71,0.00,,,0.00,WUHU216HW,2013-01-15 01:09:00,
2013-01-14 19:14:00,17.6,9.8,30.27,WSW,248,4.3,6.7,71,0.00,,,0.00,WUHU216HW,2013-01-15 01:14:00,
2013-01-14 19:19:00,18.0,10.2,30.27,West,270,7.2,7.6,71,0.00,,,0.00,WUHU216HW,2013-01-15 01:19:00,
2013-01-14 19:24:00,18.4,10.4,30.27,WSW,248,5.6,7.6,71,0.00,,,0.00,WUHU216HW,2013-01-15 01:24:00,
2013-01-14 19:29:00,18.4,10.4,30.27,WSW,248,6.5,7.4,71,0.00,,,0.00,WUHU216HW,2013-01-15 01:29:00,
2013-01-14 19:34:00,18.4,10.4,30.27,SW,225,3.6,7.4,71,0.00,,,0.00,WUHU216HW,2013-01-15 01:34:00,
2013-01-14 19:39:00,18.0,10.2,30.27,WSW,248,4.5,6.7,71,0.00,,,0.00,WUHU216HW,2013-01-15 01:39:00,
2013-01-14 19:44:00,17.6,9.8,30.27,WSW,248,2.9,4.5,71,0.00,,,0.00,WUHU216HW,2013-01-15 01:44:00,
2013-01-14 19:49:00,17.5,9.6,30.27,WSW,248,2.9,4.5,71,0.00,,,0.00,WUHU216HW,2013-01-15 01:49:00,
2013-01-14 19:54:00,17.3,9.5,30.27,WSW,248,2.9,4.3,71,0.00,,,0.00,WUHU216HW,2013-01-15 01:54:00,
2013-01-14 19:59:00,17.1,9.3,30.27,WSW,248,2.0,4.0,71,0.00,,,0.00,WUHU216HW,2013-01-15 01:59:00,
2013-01-14 20:04:00,16.9,9.1,30.27,WSW,248,1.8,3.8,71,0.00,,,0.00,WUHU216HW,2013-01-15 02:04:00,
2013-01-14 20:09:00,16.9,9.1,30.27,WSW,248,1.8,2.5,71,0.00,,,0.00,WUHU216HW,2013-01-15 02:09:00,
2013-01-14 20:14:00,16.7,8.9,30.27,WSW,248,1.6,2.2,71,0.00,,,0.00,WUHU216HW,2013-01-15 02:14:00,
2013-01-14 20:19:00,16.4,8.6,30.27,WSW,248,1.1,2.0,71,0.00,,,0.00,WUHU216HW,2013-01-15 02:19:00,
2013-01-14 20:24:00,16.4,8.6,30.27,WSW,248,0.7,2.0,71,0.00,,,0.00,WUHU216HW,2013-01-15 02:24:00,
2013-01-14 20:29:00,16.2,8.4,30.27,WSW,248,0.9,1.8,71,0.00,,,0.00,WUHU216HW,2013-01-15 02:29:00,
2013-01-14 20:34:00,16.0,8.2,30.27,WSW,248,1.1,1.8,71,0.00,,,0.00,WUHU216HW,2013-01-15 02:34:00,
2013-01-14 20:39:00,15.8,8.4,30.27,SW,225,1.1,1.8,72,0.00,,,0.00,WUHU216HW,2013-01-15 02:39:00,
2013-01-14 20:44:00,15.7,8.2,30.27,WSW,248,0.4,1.8,72,0.00,,,0.00,WUHU216HW,2013-01-15 02:44:00,
2013-01-14 20:49:00,15.5,8.0,30.27,WSW,248,0.7,1.1,72,0.00,,,0.00,WUHU216HW,2013-01-15 02:49:00,
2013-01-14 20:54:00,15.5,8.0,30.27,WSW,248,0.2,1.1,72,0.00,,,0.00,WUHU216HW,2013-01-15 02:54:00,
2013-01-14 20:59:00,15.1,7.7,30.27,WSW,248,0.0,0.7,72,0.00,,,0.00,WUHU216HW,2013-01-15 02:59:00,
2013-01-14 21:04:00,14.8,7.4,30.27,SW,225,0.2,0.2,72,0.00,,,0.00,WUHU216HW,2013-01-15 03:04:00,
2013-01-14 21:09:00,14.6,7.5,30.27,SSE,158,1.3,3.1,73,0.00,,,0.00,WUHU216HW,2013-01-15 03:09:00,
2013-01-14 21:14:00,14.4,7.7,30.27,South,180,0.4,3.1,74,0.00,,,0.00,WUHU216HW,2013-01-15 03:14:00,
2013-01-14 21:19:00,14.4,7.7,30.27,SSW,203,1.8,2.5,74,0.00,,,0.00,WUHU216HW,2013-01-15 03:19:00,
2013-01-14 21:24:00,14.2,7.5,30.26,SSW,203,1.1,2.5,74,0.00,,,0.00,WUHU216HW,2013-01-15 03:24:00,
2013-01-14 21:29:00,14.2,7.5,30.26,SSW,203,1.8,2.2,74,0.00,,,0.00,WUHU216HW,2013-01-15 03:29:00,
2013-01-14 21:34:00,14.2,8.0,30.26,SSW,203,3.4,3.4,76,0.00,,,0.00,WUHU216HW,2013-01-15 03:34:00,
2013-01-14 21:39:00,14.4,8.2,30.26,SSW,203,3.8,3.8,76,0.00,,,0.00,WUHU216HW,2013-01-15 03:39:00,
2013-01-14 21:44:00,14.4,8.2,30.26,WSW,248,2.2,3.8,76,0.00,,,0.00,WUHU216HW,2013-01-15 03:44:00,
2013-01-14 21:49:00,14.6,8.4,30.26,SSW,203,2.0,3.8,76,0.00,,,0.00,WUHU216HW,2013-01-15 03:49:00,
2013-01-14 21:54:00,14.8,8.6,30.26,SSW,203,3.4,3.4,76,0.00,,,0.00,WUHU216HW,2013-01-15 03:54:00,
2013-01-14 21:59:00,14.8,8.6,30.26,SW,225,3.6,3.6,76,0.00,,,0.00,WUHU216HW,2013-01-15 03:59:00,
2013-01-14 22:04:00,14.8,8.6,30.26,SSW,203,2.7,3.8,76,0.00,,,0.00,WUHU216HW,2013-01-15 04:04:00,
2013-01-14 22:09:00,14.8,8.6,30.26,SSW,203,2.5,3.8,76,0.00,,,0.00,WUHU216HW,2013-01-15 04:09:00,
2013-01-14 22:14:00,14.6,8.1,30.26,SSW,203,2.7,3.6,75,0.00,,,0.00,WUHU216HW,2013-01-15 04:14:00,
2013-01-14 22:19:00,14.4,7.9,30.26,WSW,248,3.4,3.6,75,0.00,,,0.00,WUHU216HW,2013-01-15 04:19:00,
2013-01-14 22:24:00,14.4,8.2,30.26,SSW,203,2.7,3.4,76,0.00,,,0.00,WUHU216HW,2013-01-15 04:24:00,
2013-01-14 22:29:00,14.2,8.0,30.26,SW,225,3.4,3.4,76,0.00,,,0.00,WUHU216HW,2013-01-15 04:29:00,
2013-01-14 22:34:00,14.2,8.0,30.26,SW,225,1.8,3.4,76,0.00,,,0.00,WUHU216HW,2013-01-15 04:34:00,
2013-01-14 22:39:00,14.0,7.6,30.26,SW,225,1.6,2.9,75,0.00,,,0.00,WUHU216HW,2013-01-15 04:39:00,
2013-01-14 22:44:00,14.0,7.6,30.26,SW,225,2.0,2.5,75,0.00,,,0.00,WUHU216HW,2013-01-15 04:44:00,
2013-01-14 22:49:00,13.9,7.4,30.26,SW,225,1.8,2.5,75,0.00,,,0.00,WUHU216HW,2013-01-15 04:49:00,
2013-01-14 22:54:00,13.7,7.5,30.26,SW,225,2.2,2.5,76,0.00,,,0.00,WUHU216HW,2013-01-15 04:54:00,
2013-01-14 22:59:00,13.5,7.3,30.26,SSW,203,2.5,3.1,76,0.00,,,0.00,WUHU216HW,2013-01-15 04:59:00,
2013-01-14 23:00:00,13.5,7.3,30.26,SSW,203,2.5,3.1,76,0.00,,,0.00,WUHU216HW,2013-01-15 05:00:00,
2013-01-14 23:01:00,13.5,7.3,30.26,SW,225,2.5,3.1,76,0.00,,,0.00,WUHU216HW,2013-01-15 05:01:00,
2013-01-14 23:02:00,13.5,7.3,30.26,SW,225,2.9,3.1,76,0.00,,,0.00,WUHU216HW,2013-01-15 05:02:00,
2013-01-14 23:07:00,13.7,7.5,30.26,SW,225,3.4,3.4,76,0.00,,,0.00,WUHU216HW,2013-01-15 05:07:00,
2013-01-14 23:12:00,13.7,7.5,30.26,SW,225,3.1,4.0,76,0.00,,,0.00,WUHU216HW,2013-01-15 05:12:00,
2013-01-14 23:17:00,13.5,7.3,30.26,SW,225,3.4,4.0,76,0.00,,,0.00,WUHU216HW,2013-01-15 05:17:00,
2013-01-14 23:22:00,13.5,7.6,30.27,SW,225,3.8,3.8,77,0.00,,,0.00,WUHU216HW,2013-01-15 05:22:00,
2013-01-14 23:27:00,13.7,7.7,30.26,SW,225,3.1,4.0,77,0.00,,,0.00,WUHU216HW,2013-01-15 05:27:00,
2013-01-14 23:32:00,13.7,7.7,30.26,SSW,203,3.4,4.0,77,0.00,,,0.00,WUHU216HW,2013-01-15 05:32:00,
2013-01-14 23:37:00,13.9,7.9,30.27,SSW,203,3.4,4.3,77,0.00,,,0.00,WUHU216HW,2013-01-15 05:37:00,
2013-01-14 23:42:00,13.9,7.9,30.26,SW,225,3.6,5.1,77,0.00,,,0.00,WUHU216HW,2013-01-15 05:42:00,
2013-01-14 23:47:00,13.9,7.9,30.27,SW,225,3.1,5.1,77,0.00,,,0.00,WUHU216HW,2013-01-15 05:47:00,
2013-01-14 23:52:00,13.9,7.9,30.27,SW,225,3.8,4.7,77,0.00,,,0.00,WUHU216HW,2013-01-15 05:52:00,
2013-01-14 23:57:00,13.9,7.9,30.27,SW,225,4.0,4.5,77,0.00,,,0.00,WUHU216HW,2013-01-15 05:57:00,